Humidity-temperature Sensor

Selected Measurement Type: Relative Humidity

 
Relative Humidity [%]     6 entries per hour
Showing data from 12/22/2016 (00:00:00 Z) to 12/21/2016 (00:01:00 Z)
Previous Next [ Day | 3-Days | 7-Days ]
First Last
Prev [ Day | 3-Days | 7-Days ] Next
First Last

Start Time:     :
End Time:     :     
Time (in GMT) :00 :50 :40 :30 :20 :10
Previous Next [ Day | 3-Days | 7-Days ]
First Last
Prev [ Day | 3-Days | 7-Days ] Next
First Last


123 => good data
MM => data is determined as missing
-- => data not received/configured
Back to Top Back to Top
12/22/2016 00:00 to 23:10 72.37 73.14 73.98 72.78 71.68 72.27
12/21/2016 23:00 to 22:10 73.03 74.03 73.39 72.97 72.71 72.42
12/21/2016 22:00 to 21:10 72.50 72.91 73.43 73.22 73.01 73.41
12/21/2016 21:00 to 20:10 73.63 74.90 74.64 75.21 75.62 74.96
12/21/2016 20:00 to 19:10 75.15 74.68 74.43 75.21 74.88 74.96
12/21/2016 19:00 to 18:10 74.87 75.32 75.49 75.98 74.77 74.98
12/21/2016 18:00 to 17:10 74.16 73.33 73.94 74.90 74.96 75.24
12/21/2016 17:00 to 16:10 76.53 75.96 76.57 75.85 76.72 76.97
12/21/2016 16:00 to 15:10 77.86 78.18 77.92 78.69 79.89 80.85
12/21/2016 15:00 to 14:10 80.00 80.57 79.77 79.58 79.68 80.32
12/21/2016 14:00 to 13:10 79.11 78.56 77.67 78.31 80.15 79.66
12/21/2016 13:00 to 12:10 79.26 78.67 79.05 79.70 80.23 81.17
12/21/2016 12:00 to 11:10 80.83 80.36 80.96 81.31 81.72 80.21
12/21/2016 11:00 to 10:10 80.78 79.92 79.26 80.21 80.62 81.61
12/21/2016 10:00 to 9:10 81.63 82.31 81.31 81.02 81.80 81.40
12/21/2016 09:00 to 8:10 82.16 82.48 82.10 81.32 81.55 81.12
12/21/2016 08:00 to 7:10 80.89 81.06 80.76 81.06 81.74 82.78
12/21/2016 07:00 to 6:10 81.97 82.18 82.54 82.73 82.88 83.43
12/21/2016 06:00 to 5:10 83.07 82.99 82.92 82.39 82.82 83.07
12/21/2016 05:00 to 4:10 82.20 82.10 81.36 80.28 79.41 79.17
12/21/2016 04:00 to 3:10 79.28 78.28 78.18 77.63 79.22 78.81
12/21/2016 03:00 to 2:10 79.26 78.84 78.81 78.05 78.14 77.63
12/21/2016 02:00 to 1:10 77.25 76.68 76.42 76.95 76.76 76.91
12/21/2016 01:00 to 0:10 76.57 76.72 76.74 76.51 76.42 76.84